DateTimeUTC,F1_A11,F1_S11,BsB_S11,BsG_S11,BsR_S11,BbsB_S11,BbsG_S11,BbsR_S11,BaB_A11,BaG_A11,BaR_A11,Tu_S11,T_S11,Uu_S11,U_S11,P_S11,T1_A11
2021-12-17T18:00:00Z,00000200,21000000,,,,,,,0000.22,0000.06,-000.19,19.1,26.1,,00.0,0651.1,31.0
2021-12-17T18:01:00Z,00000200,21000000,,,,,,,-000.34,-000.11,-000.07,19.1,26.1,,00.0,0651.1,31.1
2021-12-17T18:02:00Z,00000200,21000000,,,,,,,0000.10,-000.30,0000.14,19.1,26.1,,00.0,0651.1,31.1
2021-12-17T18:03:00Z,00000200,61000000,,,,,,,-000.06,0000.59,-000.29,19.1,26.2,,00.0,0651.1,31.0
2021-12-17T18:04:00Z,00000200,41000000,0000.17,0000.28,0000.18,-000.10,-000.06,0000.25,-000.40,-000.22,0000.22,19.2,26.0,,00.0,0652.0,31.0
2021-12-17T18:05:00Z,00000200,01000000,-000.78,0000.32,0000.11,-000.20,-000.22,0000.15,0000.13,-000.22,-000.13,19.2,25.9,,00.0,0652.1,31.0
2021-12-17T18:06:00Z,00000200,01000000,0000.83,0000.08,0000.27,-000.02,-000.18,0000.41,-000.13,-000.22,0000.14,19.2,25.9,,00.0,0652.1,31.0
2021-12-17T18:07:00Z,00000200,01000000,-000.50,0000.19,0000.22,0000.05,0000.00,0000.20,0000.36,0000.41,-000.06,19.2,25.8,,00.0,0652.1,31.0
2021-12-17T18:08:00Z,00000200,01000000,0000.23,0000.22,0000.13,0000.64,0000.18,-000.06,0000.10,0000.10,0000.07,19.2,25.9,,00.0,0652.1,31.0
2021-12-17T18:09:00Z,00000200,01000000,0000.08,0000.33,0000.34,0000.34,0000.11,0000.27,0000.33,-000.07,0000.15,19.2,25.9,,00.0,0652.2,31.0
2021-12-17T18:10:00Z,00000200,01000000,-000.55,-000.03,0000.14,-000.27,-000.33,0000.09,0000.01,0000.02,0000.01,19.3,25.9,,00.0,0652.2,31.0
2021-12-17T18:11:00Z,00000200,01000000,0000.27,0000.27,0000.19,0000.19,-000.50,0000.03,-000.18,0000.23,0000.00,19.3,25.9,,00.0,0652.3,31.1
2021-12-17T18:12:00Z,00000200,01000000,-000.49,0000.33,0000.21,0000.04,-000.23,0000.22,0000.40,-000.02,-000.09,19.4,26.0,,00.0,0652.3,31.1
2021-12-17T18:13:00Z,00000200,01000000,-000.07,0000.22,0000.14,0000.04,-000.19,-000.07,-000.42,-000.07,0000.37,19.4,26.0,,00.0,0652.3,31.1
2021-12-17T18:14:00Z,00000200,01000000,0000.16,0000.05,0000.31,-000.46,-000.15,-000.02,0000.61,0000.29,-000.01,19.5,26.0,,00.0,0652.3,31.1
2021-12-17T18:15:00Z,00000200,01000000,-000.27,0000.31,-000.15,0000.56,-000.10,0000.07,-000.07,0000.19,-000.11,19.5,26.0,,00.0,0652.4,31.1
2021-12-17T18:16:00Z,00000200,01000000,-000.81,0000.13,0000.39,-000.58,-000.10,0000.19,0000.16,-000.38,-000.01,19.4,26.0,,00.0,0652.4,31.1
2021-12-17T18:17:00Z,00000200,01000000,0000.59,0000.34,0000.12,-000.06,-000.26,0000.31,0000.23,0000.52,0000.50,19.4,26.0,,00.0,0652.3,31.0
2021-12-17T18:18:00Z,00000200,01000000,-000.02,-000.00,0000.11,-000.44,-000.28,0000.21,0000.01,-000.12,0000.29,19.3,26.0,,00.0,0652.3,31.0
2021-12-17T18:19:00Z,00000200,01000000,-000.37,0000.36,-000.14,0000.14,-000.14,0000.12,-000.15,-000.32,-000.49,19.2,25.9,,00.0,0652.3,31.0
2021-12-17T18:20:00Z,00000200,01000000,0000.44,0000.35,0000.12,0000.35,0000.15,0000.20,-000.12,0000.20,0000.03,19.2,25.9,,00.0,0652.3,31.0
2021-12-17T18:21:00Z,00000200,01000000,0000.93,0000.68,0000.40,-000.05,-000.06,-000.04,-000.05,-000.02,-000.28,19.1,25.9,,00.0,0652.3,31.0
2021-12-17T18:22:00Z,00000200,01000000,0000.62,0000.40,0000.03,-000.20,-000.33,0000.47,0000.06,-000.07,0000.40,19.1,25.8,,00.0,0652.3,31.0
2021-12-17T18:23:00Z,00000200,01000000,0000.19,0000.16,0000.04,-000.35,-000.05,0000.25,0000.39,0000.51,0000.19,19.2,25.8,,00.0,0652.3,31.0
2021-12-17T18:24:00Z,00000200,01000000,0000.27,0000.13,0000.02,-000.54,-000.10,0000.02,-000.21,-000.32,-000.09,19.2,25.9,,00.0,0652.3,31.0
2021-12-17T18:25:00Z,00000200,01000000,-000.13,0000.31,0000.23,0000.22,0000.00,0000.22,0000.42,0000.18,0000.09,19.2,25.9,,00.0,0652.3,31.0
2021-12-17T18:26:00Z,00000200,01000000,0000.30,-000.10,-000.06,0000.09,-000.41,0000.15,0000.11,0000.26,0000.23,19.3,25.9,,00.0,0652.4,31.1
2021-12-17T18:27:00Z,00000200,01000000,0000.22,0000.01,-000.12,0000.39,0000.02,-000.24,-000.69,-000.28,-000.14,19.3,25.9,,00.0,0652.4,31.1
2021-12-17T18:28:00Z,00000200,01000000,0000.24,0000.36,0000.05,0000.17,-000.32,0000.28,0000.27,0000.07,-000.13,19.4,25.9,,00.0,0652.4,31.1
2021-12-17T18:29:00Z,00000200,01000000,0000.25,0000.45,0000.21,0000.69,-000.07,0000.30,0000.09,-000.11,0000.16,19.4,26.0,,00.0,0652.4,31.1
2021-12-17T18:30:00Z,00000200,01000000,0000.06,0000.26,0000.35,-000.25,0000.09,0000.09,0000.11,0000.18,-000.35,19.4,26.0,,00.0,0652.4,31.1
2021-12-17T18:31:00Z,00000200,01000000,0000.26,0000.74,0000.23,-000.25,0000.03,0000.02,-000.05,0000.14,0000.34,19.4,26.0,,00.0,0652.4,31.0
2021-12-17T18:32:00Z,00000200,01000000,0000.79,0000.33,0000.37,0000.37,0000.13,0000.38,-000.12,-000.07,0000.09,19.3,26.0,,00.0,0652.4,31.0
2021-12-17T18:33:00Z,00000200,01000000,0000.30,0000.39,0000.42,-000.81,-000.15,0000.42,0000.20,-000.30,0000.01,19.2,25.9,,00.0,0652.5,31.0
2021-12-17T18:34:00Z,00000200,01000000,-000.60,0000.39,0000.08,-000.41,-000.34,0000.14,-000.61,-000.21,-000.61,19.1,25.8,,00.0,0652.5,31.0
2021-12-17T18:35:00Z,00000200,01000000,-000.56,0000.28,-000.01,-000.31,0000.02,0000.18,0000.21,-000.12,0000.37,19.1,25.8,,00.0,0652.5,31.0
2021-12-17T18:36:00Z,00000200,01000000,0000.07,0000.27,-000.25,0000.39,-000.03,-000.11,-000.14,0000.51,0000.06,19.0,25.8,,00.0,0652.5,31.0
2021-12-17T18:37:00Z,00000200,01000000,-000.13,0000.01,0000.15,0000.32,0000.11,0000.20,0000.20,-000.17,-000.25,19.1,25.8,,00.0,0652.6,31.0
2021-12-17T18:38:00Z,00000200,01000000,0000.22,0000.44,0000.02,-000.03,0000.15,0000.31,-000.07,-000.11,0000.08,19.1,25.8,,00.0,0652.6,31.0
2021-12-17T18:39:00Z,00000200,01000000,0000.05,0000.26,0000.40,0000.16,0000.24,0000.16,0000.03,-000.06,0000.02,19.1,25.8,,00.0,0652.6,31.0
2021-12-17T18:40:00Z,00000200,01000000,-000.35,0000.54,0000.30,0000.23,0000.13,0000.11,0000.12,0000.23,-000.07,19.2,25.8,,00.0,0652.6,31.0
2021-12-17T18:41:00Z,00000200,01000000,0000.20,0000.35,0000.15,0000.56,-000.10,0000.35,0000.06,-000.26,0000.14,19.2,25.8,,00.0,0652.6,31.0
2021-12-17T18:42:00Z,00000200,01000000,-000.21,0000.45,0000.14,0000.04,-000.26,0000.22,-000.18,0000.12,0000.14,19.2,25.8,,00.0,0652.7,31.0
2021-12-17T18:43:00Z,00000200,01000000,-000.08,-000.04,0000.52,-000.12,-000.03,0000.00,-000.01,0000.23,0000.09,19.3,25.8,,00.0,0652.7,31.0
2021-12-17T18:44:00Z,00000200,01000000,0000.19,0000.00,0000.18,-000.13,-000.22,0000.13,0000.23,-000.21,-000.22,19.3,25.9,,00.0,0652.7,31.1
2021-12-17T18:45:00Z,00000200,01000000,-000.03,0000.12,-000.26,-000.10,0000.03,-000.27,-000.12,0000.03,0000.16,19.3,25.9,,00.0,0652.7,31.1
2021-12-17T18:46:00Z,00000200,01000000,-000.47,0000.32,0000.25,-000.56,0000.16,0000.24,-000.02,0000.06,-000.05,19.4,25.9,,00.0,0652.7,31.1
2021-12-17T18:47:00Z,00000200,01000000,-000.00,0000.15,-000.05,-000.02,-000.10,-000.40,0000.36,0000.06,-000.12,19.4,25.9,,00.0,0652.7,31.0
2021-12-17T18:48:00Z,00000200,01000000,-000.24,0000.04,0000.18,0000.28,-000.10,0000.28,-000.14,0000.33,-000.07,19.3,25.9,,00.0,0652.7,31.0
2021-12-17T18:49:00Z,00000200,01000000,-000.12,0000.25,0000.26,-000.17,-000.15,0000.12,-000.05,-000.69,0000.05,19.2,25.9,,00.0,0652.6,31.0
2021-12-17T18:50:00Z,00000200,01000000,0000.01,0000.17,0000.07,-000.19,-000.20,0000.09,0000.06,0000.11,0000.29,19.2,25.8,,00.0,0652.7,31.0
2021-12-17T18:51:00Z,00000200,01000000,0000.56,0000.30,0000.34,-000.36,-000.37,-000.11,-000.28,0000.30,-000.34,19.1,25.8,,00.0,0652.7,31.0
2021-12-17T18:52:00Z,00000200,01000000,-000.46,0000.19,0000.18,-000.45,-000.09,0000.05,0000.52,0000.21,0000.31,19.1,25.8,,00.0,0652.7,31.0
2021-12-17T18:53:00Z,00000200,01000000,0000.04,-000.01,0000.03,-000.71,-000.14,0000.26,0000.10,0000.07,0000.37,19.1,25.8,,00.0,0652.7,31.0
2021-12-17T18:54:00Z,00000200,01000000,0000.19,-000.14,-000.43,0000.40,0000.02,-000.21,-000.12,0000.02,-000.14,19.2,25.8,,00.0,0652.7,31.0
2021-12-17T18:55:00Z,00000200,01000000,-000.18,0000.32,0000.18,0000.06,0000.10,0000.10,0000.15,0000.29,0000.28,19.2,25.8,,00.0,0652.7,31.0
2021-12-17T18:56:00Z,00000200,01000000,-000.58,0000.27,0000.18,-000.14,-000.13,0000.27,0000.19,0000.01,-000.04,19.3,25.8,,00.0,0652.8,31.0
2021-12-17T18:57:00Z,00000200,41000000,,,,,,,0001.10,0001.08,0000.64,19.3,25.8,,00.0,0652.8,31.0
2021-12-17T18:58:00Z,00000200,61000000,,,,,,,-000.40,-000.24,-000.21,19.0,26.0,,00.0,0651.9,31.0
2021-12-17T18:59:00Z,00000200,21000000,,,,,,,0000.02,-000.64,-000.05,19.0,26.1,,00.0,0651.9,31.1
